M I D A S
Marine Information and Data Acquisition System
Tripno 968 of the Zeeleeuw from 2005-10-06 06:43:35 to 2005-10-06 14:53:27
Back to CruiseResearch ActivitiesStationsMapUnderway DataData graphs

EquipmentUnitsComments
TimeDGPSUTC
LatitudeDGPSDM.mWGS84
LongitudeDGPSDM.mWGS84
SpeedMeteo Stationm/sRelative wind speed
DirectionMeteo StationdegRelative wind direction
TemperatureMeteo Stationdeg CelciusAir temperature
PressureMeteo StationPaAtmospheric pressure
HumidityMeteo Station%Relative humidity
Missing or incorrect values are displayed as -999
Metereological data collected by the RV Zeeleeuw from 2005-10-06 06:26:14 to 2005-10-06 14:53:04
Time Latitude Longitude Speed Direction Temperature Pressure Humidity
2005-10-06 06:27 51°13.605 2°56.066 -999 100 11.4 102370 100
2005-10-06 06:28 51°13.595 2°56.076 -999 353 11.5 102360 100
2005-10-06 06:29 51°13.561 2°56.113 -999 6 11.4 102370 100
2005-10-06 06:30 51°13.535 2°56.185 -999 13 11.5 102370 100
2005-10-06 06:31 51°13.539 2°56.223 -999 53 11.5 102370 100
2005-10-06 06:32 51°13.55 2°56.237 -999 129 11.5 102370 100
2005-10-06 06:33 51°13.526 2°56.233 -999 133 11.5 102370 100
2005-10-06 06:34 51°13.548 2°56.195 -999 133 11.5 102370 100
2005-10-06 06:35 51°13.564 2°56.123 -999 133 11.5 102370 100
2005-10-06 06:36 51°13.569 2°56.094 -999 208 11.6 102370 100
2005-10-06 06:37 51°13.582 2°56.058 -999 164 11.6 102370 100
2005-10-06 06:38 51°13.606 2°56.008 -999 133 11.6 102370 100
2005-10-06 06:39 51°13.616 2°55.99 -999 160 11.6 102370 100
2005-10-06 06:40 51°13.614 2°55.994 -999 178 11.6 102370 100
2005-10-06 06:41 51°13.615 2°55.989 -999 148 11.7 102370 100
2005-10-06 06:42 51°13.626 2°55.963 -999 135 11.8 102380 100
2005-10-06 06:43 51°13.647 2°55.915 -999 99 11.7 102380 100
2005-10-06 06:44 51°13.672 2°55.861 -999 86 11.7 102380 100
2005-10-06 06:45 51°13.699 2°55.806 -999 69 11.7 102380 100
2005-10-06 06:46 51°13.728 2°55.758 -999 42 11.7 102380 100
2005-10-06 06:47 51°13.765 2°55.689 -999 28 11.7 102390 100
2005-10-06 06:48 51°13.831 2°55.625 -999 30 11.7 102390 100
2005-10-06 06:49 51°13.911 2°55.578 -999 64 11.7 102390 100
2005-10-06 06:50 51°13.941 2°55.56 -999 96 11.8 102390 100
2005-10-06 06:51 51°13.995 2°55.523 -999 63 11.8 102390 100
2005-10-06 06:52 51°14.073 2°55.466 -999 30 11.8 102390 100
2005-10-06 06:53 51°14.17 2°55.38 -999 36 11.8 102390 100
2005-10-06 06:54 51°14.272 2°55.252 -999 14 11.8 102390 100
2005-10-06 06:55 51°14.355 2°55.081 -999 23 11.9 102390 100
2005-10-06 06:56 51°14.417 2°54.883 -999 -999 11.9 102380 100
2005-10-06 06:57 51°14.47 2°54.641 -999 7 11.9 102380 100
2005-10-06 06:58 51°14.535 2°54.354 -999 4 12 102380 100
2005-10-06 06:59 51°14.606 2°54.048 -999 2 12 102380 100
2005-10-06 07:00 51°14.683 2°53.734 -999 359 12.1 102380 100
2005-10-06 07:01 51°14.715 2°53.403 -999 352 12.2 102380 100
2005-10-06 07:02 51°14.695 2°53.056 -999 356 12.2 102380 100
2005-10-06 07:03 51°14.683 2°52.705 -999 350 12.3 102380 100
2005-10-06 07:04 51°14.646 2°52.357 -999 349 12.4 102380 100
2005-10-06 07:05 51°14.587 2°52.018 -999 345 12.4 102380 100
2005-10-06 07:06 51°14.529 2°51.727 -999 341 12.5 102390 100
2005-10-06 07:07 51°14.484 2°51.524 -999 340 12.5 102390 100
2005-10-06 07:08 51°14.45 2°51.364 -999 335 12.6 102400 100
2005-10-06 07:09 51°14.424 2°51.244 -999 332 12.6 102400 100
2005-10-06 07:10 51°14.399 2°51.144 -999 326 12.6 102400 100
2005-10-06 07:11 51°14.377 2°51.056 -999 316 12.7 102400 100
2005-10-06 07:12 51°14.356 2°50.976 -999 312 12.7 102400 100
2005-10-06 07:13 51°14.336 2°50.9 -999 311 12.8 102400 100
2005-10-06 07:14 51°14.315 2°50.826 -999 311 12.9 102400 100
2005-10-06 07:15 51°14.295 2°50.755 -999 311 12.9 102400 100
2005-10-06 07:16 51°14.275 2°50.684 -999 310 12.9 102390 100
2005-10-06 07:17 51°14.255 2°50.614 -999 310 13 102400 100
2005-10-06 07:18 51°14.235 2°50.545 -999 311 13 102400 100
2005-10-06 07:19 51°14.215 2°50.476 -999 311 13 102400 100
2005-10-06 07:20 51°14.196 2°50.408 -999 311 13 102400 100
2005-10-06 07:21 51°14.176 2°50.339 -999 311 13 102400 100
2005-10-06 07:22 51°14.157 2°50.27 -999 311 13 102400 100
2005-10-06 07:23 51°14.137 2°50.202 -999 313 13.1 102390 100
2005-10-06 07:24 51°14.118 2°50.133 -999 313 13 102400 100
2005-10-06 07:25 51°14.099 2°50.066 -999 326 13.1 102390 100
2005-10-06 07:26 51°14.079 2°49.998 -999 352 13.1 102400 100
2005-10-06 07:27 51°14.061 2°49.932 -999 3 13.1 102400 100
2005-10-06 07:28 51°14.042 2°49.865 -999 4 13.1 102400 100
2005-10-06 07:29 51°14.024 2°49.798 -999 357 13.1 102400 100
2005-10-06 07:30 51°14.006 2°49.732 -999 357 13.1 102400 100
2005-10-06 07:31 51°13.987 2°49.665 -999 357 13.2 102400 100
2005-10-06 07:32 51°13.968 2°49.599 -999 357 13.2 102400 100
2005-10-06 07:33 51°13.949 2°49.533 -999 11 13.2 102400 100
2005-10-06 07:34 51°13.93 2°49.465 -999 18 13.2 102400 100
2005-10-06 07:35 51°13.91 2°49.392 -999 32 13.2 102400 100
2005-10-06 07:36 51°13.89 2°49.314 -999 37 13.2 102400 100
2005-10-06 07:37 51°13.871 2°49.235 -999 39 13.2 102400 100
2005-10-06 07:38 51°13.851 2°49.156 -999 53 13.2 102400 100
2005-10-06 07:39 51°13.832 2°49.08 -999 53 13.3 102400 100
2005-10-06 07:40 51°13.813 2°49.005 -999 53 13.3 102400 100
2005-10-06 07:41 51°13.794 2°48.932 -999 53 13.3 102400 100
2005-10-06 07:42 51°13.774 2°48.859 -999 53 13.3 102400 100
2005-10-06 07:43 51°13.755 2°48.788 -999 53 13.4 102400 100
2005-10-06 07:44 51°13.735 2°48.707 -999 48 13.4 102400 100
2005-10-06 07:45 51°13.719 2°48.615 -999 34 13.4 102410 100
2005-10-06 07:46 51°13.707 2°48.517 -999 29 13.4 102410 100
2005-10-06 07:47 51°13.698 2°48.414 -999 39 13.4 102410 100
2005-10-06 07:48 51°13.69 2°48.322 -999 44 13.4 102410 100
2005-10-06 07:49 51°13.68 2°48.241 -999 50 13.4 102410 100
2005-10-06 07:50 51°13.67 2°48.169 -999 60 13.5 102410 100
2005-10-06 07:51 51°13.688 2°48.069 -999 6 13.5 102410 100
2005-10-06 07:52 51°13.742 2°48.081 -999 352 13.5 102410 100
2005-10-06 07:53 51°13.771 2°48.159 -999 356 13.6 102410 100
2005-10-06 07:54 51°13.801 2°48.236 -999 2 13.6 102410 100
2005-10-06 07:55 51°13.827 2°48.304 -999 3 13.5 102410 100
2005-10-06 07:56 51°13.85 2°48.363 -999 11 13.5 102410 100
2005-10-06 07:57 51°13.882 2°48.404 -999 8 13.5 102410 100
2005-10-06 07:58 51°13.915 2°48.449 -999 11 13.5 102410 100
2005-10-06 07:59 51°13.948 2°48.503 -999 6 13.5 102410 100
2005-10-06 08:00 51°13.981 2°48.557 -999 13 13.5 102410 100
2005-10-06 08:01 51°14.015 2°48.611 -999 14 13.5 102420 100
2005-10-06 08:02 51°14.049 2°48.666 -999 16 13.5 102420 100
2005-10-06 08:03 51°14.082 2°48.72 -999 11 13.4 102410 100
2005-10-06 08:04 51°14.114 2°48.776 -999 14 13.4 102420 100
2005-10-06 08:05 51°14.145 2°48.835 -999 18 13.4 102410 100
2005-10-06 08:06 51°14.174 2°48.896 -999 19 13.4 102420 100
2005-10-06 08:07 51°14.201 2°48.958 -999 15 13.4 102420 100
2005-10-06 08:08 51°14.229 2°49.019 -999 15 13.4 102420 100
2005-10-06 08:09 51°14.256 2°49.079 -999 15 13.4 102420 100
2005-10-06 08:10 51°14.283 2°49.136 -999 18 13.3 102420 100
2005-10-06 08:11 51°14.309 2°49.192 -999 12 13.3 102420 100
2005-10-06 08:12 51°14.336 2°49.247 -999 14 13.4 102430 100
2005-10-06 08:13 51°14.362 2°49.302 -999 9 13.4 102420 100
2005-10-06 08:14 51°14.389 2°49.357 -999 6 13.4 102420 100
2005-10-06 08:15 51°14.415 2°49.413 -999 4 13.4 102420 100
2005-10-06 08:16 51°14.442 2°49.47 -999 4 13.5 102420 100
2005-10-06 08:17 51°14.468 2°49.527 -999 2 13.4 102420 100
2005-10-06 08:18 51°14.495 2°49.584 -999 356 13.4 102420 100
2005-10-06 08:19 51°14.522 2°49.641 -999 359 13.5 102420 100
2005-10-06 08:20 51°14.549 2°49.698 -999 350 13.5 102420 100
2005-10-06 08:21 51°14.575 2°49.755 -999 352 13.6 102420 100
2005-10-06 08:22 51°14.602 2°49.811 -999 348 13.6 102420 100
2005-10-06 08:23 51°14.629 2°49.867 -999 351 13.6 102410 100
2005-10-06 08:24 51°14.655 2°49.924 -999 343 13.6 102420 100
2005-10-06 08:25 51°14.682 2°49.981 -999 349 13.7 102410 100
2005-10-06 08:26 51°14.708 2°50.038 -999 353 13.7 102410 100
2005-10-06 08:27 51°14.735 2°50.097 -999 349 13.8 102410 100
2005-10-06 08:28 51°14.759 2°50.158 -999 347 13.8 102410 100
2005-10-06 08:29 51°14.779 2°50.222 -999 349 13.8 102410 100
2005-10-06 08:30 51°14.798 2°50.287 -999 336 13.8 102410 100
2005-10-06 08:31 51°14.804 2°50.364 -999 333 13.9 102410 100
2005-10-06 08:32 51°14.801 2°50.442 -999 319 13.9 102410 100
2005-10-06 08:33 51°14.791 2°50.503 -999 42 13.9 102410 100
2005-10-06 08:34 51°14.784 2°50.532 -999 321 13.9 102410 100
2005-10-06 08:35 51°14.779 2°50.541 -999 227 14 102410 100
2005-10-06 08:36 51°14.773 2°50.539 -999 310 14 102410 100
2005-10-06 08:37 51°14.765 2°50.53 -999 228 14 102410 100
2005-10-06 08:38 51°14.755 2°50.515 -999 313 14 102410 100
2005-10-06 08:39 51°14.743 2°50.496 -999 324 14 102410 100
2005-10-06 08:40 51°14.737 2°50.489 -999 347 14.1 102410 100
2005-10-06 08:41 51°14.787 2°50.504 -999 21 14.1 102410 100
2005-10-06 08:42 51°14.84 2°50.327 -999 48 14.1 102410 100
2005-10-06 08:43 51°14.831 2°49.989 -999 33 14.1 102410 100
2005-10-06 08:44 51°14.822 2°49.612 -999 29 14.2 102410 100
2005-10-06 08:45 51°14.816 2°49.233 -999 35 14.2 102410 100
2005-10-06 08:46 51°14.809 2°48.855 -999 35 14.2 102410 100
2005-10-06 08:47 51°14.802 2°48.475 -999 28 14.2 102410 100
2005-10-06 08:48 51°14.797 2°48.097 -999 31 14.2 102410 100
2005-10-06 08:49 51°14.783 2°47.72 -999 32 14.3 102410 100
2005-10-06 08:50 51°14.744 2°47.343 -999 34 14.3 102410 100
2005-10-06 08:51 51°14.703 2°46.959 -999 24 14.3 102410 100
2005-10-06 08:52 51°14.662 2°46.577 -999 33 14.4 102410 100
2005-10-06 08:53 51°14.62 2°46.202 -999 37 14.4 102410 100
2005-10-06 08:54 51°14.583 2°45.837 -999 37 14.4 102410 100
2005-10-06 08:55 51°14.552 2°45.48 -999 35 14.5 102420 100
2005-10-06 08:56 51°14.532 2°45.105 -999 17 14.5 102420 100
2005-10-06 08:57 51°14.504 2°44.719 -999 22 14.5 102420 100
2005-10-06 08:58 51°14.479 2°44.331 -999 20 14.6 102410 100
2005-10-06 08:59 51°14.45 2°43.944 -999 42 14.6 102410 100
2005-10-06 09:00 51°14.425 2°43.554 -999 51 14.6 102420 100
2005-10-06 09:01 51°14.396 2°43.164 -999 41 14.7 102410 100
2005-10-06 09:02 51°14.364 2°42.771 -999 32 14.8 102410 100
2005-10-06 09:03 51°14.332 2°42.379 -999 22 14.8 102420 100
2005-10-06 09:04 51°14.301 2°41.991 -999 32 14.8 102410 100
2005-10-06 09:05 51°14.273 2°41.605 -999 30 14.9 102420 100
2005-10-06 09:06 51°14.241 2°41.219 -999 34 14.9 102410 100
2005-10-06 09:07 51°14.21 2°40.835 -999 28 15 102410 100
2005-10-06 09:08 51°14.18 2°40.453 -999 32 15 102410 100
2005-10-06 09:09 51°14.152 2°40.073 -999 35 15 102410 100
2005-10-06 09:10 51°14.123 2°39.695 -999 30 15 102410 100
2005-10-06 09:11 51°14.096 2°39.318 -999 40 15 102410 100
2005-10-06 09:12 51°14.068 2°38.942 -999 38 15.1 102410 100
2005-10-06 09:13 51°14.041 2°38.567 -999 33 15.1 102410 100
2005-10-06 09:14 51°14.015 2°38.185 -999 31 15.2 102410 100
2005-10-06 09:15 51°13.988 2°37.799 -999 29 15.2 102410 100
2005-10-06 09:16 51°13.962 2°37.409 -999 30 15.2 102410 100
2005-10-06 09:17 51°13.938 2°37.012 -999 31 15.3 102410 100
2005-10-06 09:18 51°13.856 2°36.649 -999 6 15.3 102410 100
2005-10-06 09:19 51°13.704 2°36.335 -999 4 15.3 102410 100
2005-10-06 09:20 51°13.551 2°36.022 -999 7 15.4 102410 100
2005-10-06 09:21 51°13.398 2°35.711 -999 355 15.4 102410 100
2005-10-06 09:22 51°13.245 2°35.402 -999 360 15.5 102410 100
2005-10-06 09:23 51°13.09 2°35.09 -999 9 15.5 102410 100
2005-10-06 09:24 51°12.926 2°34.797 -999 351 15.5 102410 100
2005-10-06 09:25 51°12.737 2°34.553 -999 343 15.5 102400 100
2005-10-06 09:26 51°12.548 2°34.311 -999 349 15.6 102410 100
2005-10-06 09:27 51°12.36 2°34.07 -999 342 15.6 102400 100
2005-10-06 09:28 51°12.169 2°33.837 -999 341 15.6 102400 100
2005-10-06 09:29 51°11.983 2°33.601 -999 336 15.6 102400 100
2005-10-06 09:30 51°11.861 2°33.462 -999 285 15.7 102400 100
2005-10-06 09:31 51°11.79 2°33.359 -999 237 15.7 102410 99
2005-10-06 09:32 51°11.745 2°33.267 -999 226 15.7 102400 99
2005-10-06 09:33 51°11.703 2°33.193 -999 245 15.7 102400 99
2005-10-06 09:34 51°11.663 2°33.127 -999 250 15.7 102400 99
2005-10-06 09:35 51°11.62 2°33.063 -999 248 15.6 102400 99
2005-10-06 09:36 51°11.582 2°33.002 -999 237 15.6 102400 99
2005-10-06 09:37 51°11.546 2°32.942 -999 237 15.6 102400 99
2005-10-06 09:38 51°11.512 2°32.88 -999 230 15.6 102400 99
2005-10-06 09:39 51°11.477 2°32.818 -999 238 15.6 102400 99
2005-10-06 09:40 51°11.443 2°32.755 -999 232 15.5 102400 99
2005-10-06 09:41 51°11.409 2°32.694 -999 233 15.5 102400 99
2005-10-06 09:42 51°11.373 2°32.632 -999 235 15.5 102400 99
2005-10-06 09:43 51°11.339 2°32.573 -999 242 15.5 102400 99
2005-10-06 09:44 51°11.304 2°32.512 -999 237 15.5 102400 98
2005-10-06 09:45 51°11.269 2°32.451 -999 230 15.5 102390 98
2005-10-06 09:46 51°11.234 2°32.391 -999 229 15.5 102400 98
2005-10-06 09:47 51°11.199 2°32.33 -999 237 15.5 102390 98
2005-10-06 09:48 51°11.164 2°32.269 -999 227 15.5 102390 98
2005-10-06 09:49 51°11.13 2°32.208 -999 228 15.5 102400 98
2005-10-06 09:50 51°11.095 2°32.147 -999 232 15.5 102400 98
2005-10-06 09:51 51°11.06 2°32.086 -999 230 15.5 102390 98
2005-10-06 09:52 51°11.025 2°32.024 -999 232 15.5 102400 98
2005-10-06 09:53 51°10.99 2°31.963 -999 226 15.5 102390 98
2005-10-06 09:54 51°10.955 2°31.901 -999 249 15.5 102390 98
2005-10-06 09:55 51°10.92 2°31.838 -999 231 15.6 102390 98
2005-10-06 09:56 51°10.884 2°31.778 -999 227 15.6 102390 98
2005-10-06 09:57 51°10.851 2°31.714 -999 204 15.6 102390 98
2005-10-06 09:58 51°10.817 2°31.649 -999 204 15.6 102390 98
2005-10-06 09:59 51°10.784 2°31.584 -999 206 15.7 102390 98
2005-10-06 10:00 51°10.751 2°31.518 -999 178 15.7 102390 97
2005-10-06 10:01 51°10.718 2°31.453 -999 198 15.8 102390 97
2005-10-06 10:02 51°10.683 2°31.389 -999 186 15.9 102390 97
2005-10-06 10:03 51°10.65 2°31.32 -999 164 15.9 102390 96
2005-10-06 10:04 51°10.62 2°31.222 -999 136 15.9 102390 96
2005-10-06 10:05 51°10.602 2°31.108 -999 120 15.8 102390 95
2005-10-06 10:06 51°10.585 2°30.989 -999 120 15.8 102380 95
2005-10-06 10:07 51°10.563 2°30.865 -999 148 15.8 102390 95
2005-10-06 10:08 51°10.535 2°30.759 -999 160 15.8 102390 95
2005-10-06 10:09 51°10.503 2°30.677 -999 187 15.8 102390 95
2005-10-06 10:10 51°10.468 2°30.611 -999 197 15.9 102380 95
2005-10-06 10:11 51°10.415 2°30.534 -999 245 16 102380 95
2005-10-06 10:12 51°10.33 2°30.45 -999 291 16 102390 94
2005-10-06 10:13 51°10.266 2°30.502 -999 356 16 102380 94
2005-10-06 10:14 51°10.3 2°30.569 -999 24 16 102380 94
2005-10-06 10:15 51°10.35 2°30.608 -999 19 15.9 102370 94
2005-10-06 10:16 51°10.383 2°30.663 -999 11 15.8 102380 94
2005-10-06 10:17 51°10.415 2°30.711 -999 27 15.8 102380 95
2005-10-06 10:18 51°10.454 2°30.749 -999 22 15.8 102380 95
2005-10-06 10:19 51°10.487 2°30.799 -999 13 15.8 102380 95
2005-10-06 10:20 51°10.521 2°30.847 -999 20 15.7 102380 94
2005-10-06 10:21 51°10.558 2°30.891 -999 19 15.8 102380 95
2005-10-06 10:22 51°10.594 2°30.934 -999 21 15.8 102370 94
2005-10-06 10:23 51°10.63 2°30.977 -999 28 15.8 102370 95
2005-10-06 10:24 51°10.666 2°31.021 -999 24 15.8 102380 95
2005-10-06 10:25 51°10.703 2°31.065 -999 28 15.8 102380 95
2005-10-06 10:26 51°10.739 2°31.108 -999 29 15.8 102370 95
2005-10-06 10:27 51°10.773 2°31.156 -999 24 15.7 102380 95
2005-10-06 10:28 51°10.805 2°31.205 -999 30 15.7 102380 95
2005-10-06 10:29 51°10.839 2°31.255 -999 22 15.7 102370 95
2005-10-06 10:30 51°10.874 2°31.306 -999 14 15.7 102370 95
2005-10-06 10:31 51°10.907 2°31.354 -999 15 15.7 102380 95
2005-10-06 10:32 51°10.942 2°31.405 -999 13 15.8 102370 94
2005-10-06 10:33 51°10.977 2°31.456 -999 21 15.8 102380 95
2005-10-06 10:34 51°11.013 2°31.507 -999 21 15.8 102370 94
2005-10-06 10:35 51°11.049 2°31.558 -999 25 15.8 102370 95
2005-10-06 10:36 51°11.082 2°31.61 -999 21 15.8 102370 94
2005-10-06 10:37 51°11.115 2°31.663 -999 20 15.8 102370 94
2005-10-06 10:38 51°11.147 2°31.716 -999 22 15.8 102370 94
2005-10-06 10:39 51°11.178 2°31.773 -999 19 15.7 102370 94
2005-10-06 10:40 51°11.207 2°31.833 -999 20 15.7 102370 94
2005-10-06 10:41 51°11.238 2°31.892 -999 19 15.8 102370 94
2005-10-06 10:42 51°11.269 2°31.952 -999 15 15.8 102360 94
2005-10-06 10:43 51°11.299 2°32.012 -999 17 15.8 102370 94
2005-10-06 10:44 51°11.33 2°32.073 -999 15 15.8 102360 94
2005-10-06 10:45 51°11.363 2°32.134 -999 11 15.8 102360 94
2005-10-06 10:46 51°11.396 2°32.196 -999 7 15.8 102360 94
2005-10-06 10:47 51°11.427 2°32.256 -999 10 15.8 102360 94
2005-10-06 10:48 51°11.457 2°32.315 -999 6 15.9 102360 94
2005-10-06 10:49 51°11.486 2°32.381 -999 4 15.9 102360 94
2005-10-06 10:50 51°11.513 2°32.453 -999 3 15.9 102350 94
2005-10-06 10:51 51°11.541 2°32.519 -999 5 15.9 102360 93
2005-10-06 10:52 51°11.573 2°32.581 -999 4 15.9 102350 93
2005-10-06 10:53 51°11.607 2°32.64 -999 5 15.9 102350 93
2005-10-06 10:54 51°11.634 2°32.671 -999 15 15.9 102350 93
2005-10-06 10:55 51°11.654 2°32.678 -999 21 16 102350 93
2005-10-06 10:56 51°11.666 2°32.675 -999 27 16 102350 93
2005-10-06 10:57 51°11.673 2°32.668 -999 31 15.9 102350 93
2005-10-06 10:58 51°11.677 2°32.659 -999 42 15.9 102350 94
2005-10-06 10:59 51°11.679 2°32.649 -999 36 15.9 102350 94
2005-10-06 11:00 51°11.715 2°32.686 -999 4 15.9 102340 94
2005-10-06 11:01 51°11.803 2°32.848 -999 2 15.9 102330 94
2005-10-06 11:02 51°11.938 2°33.092 -999 4 15.8 102330 94
2005-10-06 11:03 51°12.075 2°33.342 -999 359 15.9 102320 94
2005-10-06 11:04 51°12.213 2°33.59 -999 2 15.9 102320 94
2005-10-06 11:05 51°12.351 2°33.838 -999 8 15.9 102320 95
2005-10-06 11:06 51°12.489 2°34.088 -999 10 15.9 102310 94
2005-10-06 11:07 51°12.627 2°34.34 -999 12 15.9 102320 94
2005-10-06 11:08 51°12.756 2°34.588 -999 14 15.8 102320 95
2005-10-06 11:09 51°12.892 2°34.841 -999 12 15.7 102320 95
2005-10-06 11:10 51°13.021 2°35.087 -999 10 15.7 102320 95
2005-10-06 11:11 51°13.154 2°35.338 -999 13 15.7 102310 95
2005-10-06 11:12 51°13.287 2°35.582 -999 14 15.7 102310 96
2005-10-06 11:13 51°13.415 2°35.826 -999 13 15.6 102310 96
2005-10-06 11:14 51°13.526 2°36.089 -999 18 15.6 102320 96
2005-10-06 11:15 51°13.639 2°36.353 -999 14 15.5 102320 96
2005-10-06 11:16 51°13.75 2°36.621 -999 17 15.5 102320 97
2005-10-06 11:17 51°13.863 2°36.888 -999 14 15.4 102330 97
2005-10-06 11:18 51°13.971 2°37.158 -999 14 15.4 102320 97
2005-10-06 11:19 51°14.08 2°37.427 -999 15 15.4 102320 97
2005-10-06 11:20 51°14.18 2°37.707 -999 8 15.4 102320 97
2005-10-06 11:21 51°14.185 2°38.025 -999 4 15.4 102310 97
2005-10-06 11:22 51°14.17 2°38.355 -999 4 15.4 102310 98
2005-10-06 11:23 51°14.109 2°38.674 -999 352 15.3 102310 98
2005-10-06 11:24 51°13.903 2°38.775 -999 344 15.4 102310 98
2005-10-06 11:25 51°13.671 2°38.729 -999 348 15.4 102320 98
2005-10-06 11:26 51°13.455 2°38.636 -999 343 15.4 102320 98
2005-10-06 11:27 51°13.251 2°38.466 -999 350 15.4 102310 98
2005-10-06 11:28 51°13.046 2°38.302 -999 341 15.4 102310 98
2005-10-06 11:29 51°12.841 2°38.136 -999 343 15.4 102310 98
2005-10-06 11:30 51°12.636 2°37.97 -999 344 15.4 102310 98
2005-10-06 11:31 51°12.432 2°37.801 -999 342 15.4 102310 98
2005-10-06 11:32 51°12.223 2°37.635 -999 342 15.4 102310 98
2005-10-06 11:33 51°12.018 2°37.47 -999 345 15.4 102300 98
2005-10-06 11:34 51°11.821 2°37.299 -999 344 15.5 102300 98
2005-10-06 11:35 51°11.626 2°37.108 -999 343 15.5 102300 98
2005-10-06 11:36 51°11.425 2°36.916 -999 344 15.5 102300 98
2005-10-06 11:37 51°11.234 2°36.729 -999 345 15.5 102300 98
2005-10-06 11:38 51°11.039 2°36.544 -999 341 15.5 102300 98
2005-10-06 11:39 51°10.843 2°36.362 -999 342 15.5 102300 98
2005-10-06 11:40 51°10.65 2°36.176 -999 340 15.5 102300 98
2005-10-06 11:41 51°10.454 2°35.987 -999 343 15.5 102290 98
2005-10-06 11:42 51°10.264 2°35.804 -999 342 15.5 102290 98
2005-10-06 11:43 51°10.068 2°35.622 -999 342 15.5 102300 98
2005-10-06 11:44 51°9.88 2°35.447 -999 338 15.6 102290 97
2005-10-06 11:45 51°9.688 2°35.265 -999 334 15.5 102290 97
2005-10-06 11:46 51°9.505 2°35.092 -999 329 15.5 102290 97
2005-10-06 11:47 51°9.319 2°34.914 -999 335 15.5 102290 97
2005-10-06 11:48 51°9.13 2°34.736 -999 336 15.5 102290 97
2005-10-06 11:49 51°8.948 2°34.564 -999 338 15.4 102290 97
2005-10-06 11:50 51°8.824 2°34.461 -999 300 15.4 102290 97
2005-10-06 11:51 51°8.757 2°34.478 -999 315 15.5 102280 97
2005-10-06 11:52 51°8.732 2°34.557 -999 358 15.5 102280 97
2005-10-06 11:53 51°8.754 2°34.642 -999 29 15.5 102280 97
2005-10-06 11:54 51°8.796 2°34.729 -999 28 15.5 102280 97
2005-10-06 11:55 51°8.831 2°34.823 -999 21 15.5 102280 97
2005-10-06 11:56 51°8.86 2°34.913 -999 21 15.5 102280 97
2005-10-06 11:57 51°8.888 2°34.993 -999 24 15.4 102280 97
2005-10-06 11:58 51°8.91 2°35.066 -999 19 15.4 102270 98
2005-10-06 11:59 51°8.925 2°35.135 -999 11 15.4 102280 98
2005-10-06 12:00 51°8.937 2°35.198 -999 13 15.4 102270 98
2005-10-06 12:01 51°8.952 2°35.266 -999 18 15.4 102270 98
2005-10-06 12:02 51°8.966 2°35.344 -999 4 15.4 102270 98
2005-10-06 12:03 51°8.978 2°35.423 -999 4 15.4 102270 98
2005-10-06 12:04 51°8.99 2°35.499 -999 6 15.3 102260 98
2005-10-06 12:05 51°9.002 2°35.575 -999 2 15.3 102270 98
2005-10-06 12:06 51°9.014 2°35.65 -999 2 15.3 102260 98
2005-10-06 12:07 51°9.027 2°35.723 -999 3 15.3 102260 98
2005-10-06 12:08 51°9.039 2°35.798 -999 1 15.4 102260 98
2005-10-06 12:09 51°9.052 2°35.872 -999 2 15.3 102260 98
2005-10-06 12:10 51°9.064 2°35.947 -999 2 15.3 102260 98
2005-10-06 12:11 51°9.077 2°36.021 -999 5 15.3 102260 98
2005-10-06 12:12 51°9.091 2°36.099 -999 2 15.3 102270 98
2005-10-06 12:13 51°9.104 2°36.176 -999 3 15.3 102260 98
2005-10-06 12:14 51°9.118 2°36.253 -999 2 15.3 102270 98
2005-10-06 12:15 51°9.132 2°36.33 -999 5 15.3 102260 98
2005-10-06 12:16 51°9.145 2°36.406 -999 360 15.3 102260 98
2005-10-06 12:17 51°9.158 2°36.485 -999 3 15.3 102250 98
2005-10-06 12:18 51°9.171 2°36.564 -999 3 15.3 102260 98
2005-10-06 12:19 51°9.185 2°36.643 -999 -999 15.3 102250 98
2005-10-06 12:20 51°9.199 2°36.725 -999 357 15.3 102260 98
2005-10-06 12:21 51°9.214 2°36.804 -999 356 15.3 102250 98
2005-10-06 12:22 51°9.229 2°36.89 -999 1 15.4 102250 98
2005-10-06 12:23 51°9.243 2°36.976 -999 1 15.4 102250 98
2005-10-06 12:24 51°9.258 2°37.054 -999 358 15.4 102260 98
2005-10-06 12:25 51°9.272 2°37.137 -999 7 15.4 102250 98
2005-10-06 12:26 51°9.287 2°37.221 -999 3 15.3 102250 98
2005-10-06 12:27 51°9.302 2°37.305 -999 356 15.3 102250 98
2005-10-06 12:28 51°9.317 2°37.39 -999 357 15.4 102250 98
2005-10-06 12:29 51°9.33 2°37.476 -999 356 15.4 102240 98
2005-10-06 12:30 51°9.338 2°37.557 -999 351 15.4 102250 98
2005-10-06 12:31 51°9.344 2°37.64 -999 347 15.4 102240 98
2005-10-06 12:32 51°9.347 2°37.722 -999 343 15.4 102240 98
2005-10-06 12:33 51°9.35 2°37.813 -999 350 15.4 102240 98
2005-10-06 12:34 51°9.354 2°37.893 -999 349 15.4 102250 98
2005-10-06 12:35 51°9.361 2°37.965 -999 346 15.4 102240 98
2005-10-06 12:36 51°9.367 2°38.028 -999 344 15.4 102240 98
2005-10-06 12:37 51°9.372 2°38.108 -999 347 15.4 102240 98
2005-10-06 12:38 51°9.374 2°38.237 -999 346 15.4 102230 98
2005-10-06 12:39 51°9.373 2°38.375 -999 341 15.4 102240 98
2005-10-06 12:40 51°9.374 2°38.509 -999 345 15.4 102230 98
2005-10-06 12:41 51°9.375 2°38.633 -999 340 15.4 102230 98
2005-10-06 12:42 51°9.376 2°38.757 -999 345 15.4 102230 98
2005-10-06 12:43 51°9.383 2°38.868 -999 350 15.4 102230 98
2005-10-06 12:44 51°9.397 2°38.967 -999 358 15.4 102240 98
2005-10-06 12:45 51°9.414 2°39.056 -999 357 15.4 102240 98
2005-10-06 12:46 51°9.432 2°39.143 -999 2 15.4 102240 98
2005-10-06 12:47 51°9.449 2°39.226 -999 357 15.4 102240 98
2005-10-06 12:48 51°9.464 2°39.306 -999 359 15.3 102240 98
2005-10-06 12:49 51°9.48 2°39.389 -999 354 15.4 102240 98
2005-10-06 12:50 51°9.495 2°39.468 -999 358 15.3 102240 98
2005-10-06 12:51 51°9.51 2°39.551 -999 -999 15.3 102240 98
2005-10-06 12:52 51°9.524 2°39.629 -999 356 15.3 102240 98
2005-10-06 12:53 51°9.538 2°39.71 -999 355 15.3 102240 98
2005-10-06 12:54 51°9.554 2°39.789 -999 355 15.3 102240 98
2005-10-06 12:55 51°9.569 2°39.866 -999 360 15.3 102240 98
2005-10-06 12:56 51°9.585 2°39.947 -999 357 15.3 102240 98
2005-10-06 12:57 51°9.601 2°40.024 -999 360 15.3 102230 98
2005-10-06 12:58 51°9.618 2°40.104 -999 358 15.3 102230 98
2005-10-06 12:59 51°9.634 2°40.184 -999 351 15.3 102230 98
2005-10-06 13:00 51°9.649 2°40.263 -999 355 15.3 102230 98
2005-10-06 13:01 51°9.665 2°40.339 -999 359 15.3 102230 98
2005-10-06 13:02 51°9.684 2°40.416 -999 4 15.2 102230 98
2005-10-06 13:03 51°9.703 2°40.494 -999 3 15.2 102230 98
2005-10-06 13:04 51°9.723 2°40.57 -999 5 15.2 102230 98
2005-10-06 13:05 51°9.743 2°40.647 -999 1 15.2 102230 98
2005-10-06 13:06 51°9.763 2°40.722 -999 2 15.1 102230 98
2005-10-06 13:07 51°9.784 2°40.797 -999 4 15.2 102230 98
2005-10-06 13:08 51°9.805 2°40.873 -999 2 15.1 102230 98
2005-10-06 13:09 51°9.826 2°40.948 -999 1 15.1 102230 98
2005-10-06 13:10 51°9.847 2°41.024 -999 9 15.1 102230 98
2005-10-06 13:11 51°9.868 2°41.098 -999 3 15.1 102220 98
2005-10-06 13:12 51°9.885 2°41.171 -999 349 15.1 102220 98
2005-10-06 13:13 51°9.896 2°41.246 -999 328 15 102220 98
2005-10-06 13:14 51°9.901 2°41.323 -999 331 15 102220 98
2005-10-06 13:15 51°9.906 2°41.402 -999 330 15 102220 98
2005-10-06 13:16 51°9.911 2°41.476 -999 324 14.9 102220 98
2005-10-06 13:17 51°9.916 2°41.541 -999 327 14.9 102220 98
2005-10-06 13:18 51°9.921 2°41.602 -999 328 14.9 102220 98
2005-10-06 13:19 51°9.925 2°41.657 -999 315 14.9 102220 98
2005-10-06 13:20 51°9.929 2°41.709 -999 306 14.9 102220 99
2005-10-06 13:21 51°9.928 2°41.798 -999 339 14.9 102230 99
2005-10-06 13:22 51°9.944 2°41.989 -999 354 14.9 102220 99
2005-10-06 13:23 51°9.984 2°42.269 -999 354 15 102220 99
2005-10-06 13:24 51°10.03 2°42.555 -999 349 15 102210 99
2005-10-06 13:25 51°10.046 2°42.854 -999 349 14.9 102210 99
2005-10-06 13:26 51°10.096 2°43.137 -999 360 14.9 102210 99
2005-10-06 13:27 51°10.142 2°43.423 -999 340 14.9 102210 99
2005-10-06 13:28 51°10.169 2°43.717 -999 344 14.8 102210 99
2005-10-06 13:29 51°10.203 2°44.01 -999 347 14.8 102210 99
2005-10-06 13:30 51°10.238 2°44.304 -999 347 14.7 102210 99
2005-10-06 13:31 51°10.277 2°44.582 -999 342 14.7 102220 99
2005-10-06 13:32 51°10.316 2°44.771 -999 342 14.7 102220 99
2005-10-06 13:33 51°10.338 2°44.915 -999 334 14.7 102230 99
2005-10-06 13:34 51°10.35 2°45.041 -999 329 14.6 102220 99
2005-10-06 13:35 51°10.363 2°45.152 -999 333 14.5 102220 99
2005-10-06 13:36 51°10.381 2°45.243 -999 346 14.5 102230 99
2005-10-06 13:37 51°10.4 2°45.32 -999 357 14.4 102220 100
2005-10-06 13:38 51°10.422 2°45.388 -999 360 14.4 102230 100
2005-10-06 13:39 51°10.449 2°45.457 -999 5 14.4 102220 100
2005-10-06 13:40 51°10.478 2°45.525 -999 12 14.4 102230 100
2005-10-06 13:41 51°10.508 2°45.593 -999 354 14.5 102230 100
2005-10-06 13:42 51°10.537 2°45.661 -999 359 14.4 102230 100
2005-10-06 13:43 51°10.566 2°45.73 -999 3 14.5 102220 100
2005-10-06 13:44 51°10.596 2°45.798 -999 5 14.4 102220 100
2005-10-06 13:45 51°10.626 2°45.866 -999 351 14.5 102220 100
2005-10-06 13:46 51°10.655 2°45.938 -999 348 14.5 102220 100
2005-10-06 13:47 51°10.681 2°46.011 -999 345 14.5 102220 100
2005-10-06 13:48 51°10.707 2°46.083 -999 344 14.5 102220 100
2005-10-06 13:49 51°10.735 2°46.152 -999 354 14.5 102220 100
2005-10-06 13:50 51°10.767 2°46.225 -999 340 14.5 102220 100
2005-10-06 13:51 51°10.798 2°46.297 -999 355 14.4 102220 100
2005-10-06 13:52 51°10.829 2°46.361 -999 10 14.4 102220 100
2005-10-06 13:53 51°10.866 2°46.431 -999 8 14.4 102220 100
2005-10-06 13:54 51°10.902 2°46.512 -999 354 14.4 102220 100
2005-10-06 13:55 51°10.932 2°46.601 -999 345 14.4 102220 100
2005-10-06 13:56 51°10.958 2°46.691 -999 344 14.4 102220 100
2005-10-06 13:57 51°10.985 2°46.772 -999 346 14.4 102210 100
2005-10-06 13:58 51°11.015 2°46.847 -999 354 14.3 102220 100
2005-10-06 13:59 51°11.047 2°46.916 -999 4 14.3 102220 100
2005-10-06 14:00 51°11.081 2°46.983 -999 7 14.2 102220 100
2005-10-06 14:01 51°11.117 2°47.047 -999 6 14.3 102220 100
2005-10-06 14:02 51°11.152 2°47.112 -999 3 14.3 102220 100
2005-10-06 14:03 51°11.186 2°47.178 -999 360 14.2 102220 100
2005-10-06 14:04 51°11.216 2°47.248 -999 343 14.2 102220 100
2005-10-06 14:05 51°11.245 2°47.319 -999 343 14.2 102220 100
2005-10-06 14:06 51°11.275 2°47.39 -999 348 14.1 102220 100
2005-10-06 14:07 51°11.306 2°47.461 -999 1 14.2 102210 100
2005-10-06 14:08 51°11.349 2°47.55 -999 358 14.1 102220 100
2005-10-06 14:09 51°11.397 2°47.659 -999 357 14.1 102210 100
2005-10-06 14:10 51°11.444 2°47.778 -999 351 14.1 102210 100
2005-10-06 14:11 51°11.489 2°47.899 -999 355 14.1 102210 100
2005-10-06 14:12 51°11.529 2°47.989 -999 354 14.1 102210 100
2005-10-06 14:13 51°11.563 2°48.058 -999 7 14.1 102210 100
2005-10-06 14:14 51°11.63 2°48.171 -999 -999 14.1 102210 100
2005-10-06 14:15 51°11.754 2°48.425 -999 357 14 102190 100
2005-10-06 14:16 51°11.882 2°48.701 -999 1 14 102200 100
2005-10-06 14:17 51°12.011 2°48.976 -999 354 14 102200 100
2005-10-06 14:18 51°12.13 2°49.237 -999 359 14 102190 100
2005-10-06 14:19 51°12.252 2°49.481 -999 360 14 102190 100
2005-10-06 14:20 51°12.375 2°49.725 -999 360 13.9 102190 100
2005-10-06 14:21 51°12.495 2°49.976 -999 2 13.9 102180 100
2005-10-06 14:22 51°12.617 2°50.228 -999 357 13.8 102190 100
2005-10-06 14:23 51°12.739 2°50.478 -999 359 13.8 102190 100
2005-10-06 14:24 51°12.861 2°50.729 -999 351 13.8 102200 100
2005-10-06 14:25 51°12.983 2°50.98 -999 353 13.8 102190 100
2005-10-06 14:26 51°13.096 2°51.241 -999 1 13.9 102190 100
2005-10-06 14:27 51°13.205 2°51.507 -999 2 13.8 102190 100
2005-10-06 14:28 51°13.293 2°51.718 -999 359 13.8 102200 100
2005-10-06 14:29 51°13.366 2°51.892 -999 354 13.7 102200 100
2005-10-06 14:30 51°13.488 2°52.184 -999 352 13.7 102190 100
2005-10-06 14:31 51°13.621 2°52.494 -999 351 13.7 102190 100
2005-10-06 14:32 51°13.749 2°52.798 -999 351 13.7 102190 100
2005-10-06 14:33 51°13.872 2°53.075 -999 351 13.7 102190 100
2005-10-06 14:34 51°13.975 2°53.309 -999 1 13.7 102200 100
2005-10-06 14:35 51°14.08 2°53.556 -999 5 13.7 102200 100
2005-10-06 14:36 51°14.183 2°53.791 -999 356 13.7 102200 100
2005-10-06 14:37 51°14.27 2°53.99 -999 353 13.7 102200 100
2005-10-06 14:38 51°14.352 2°54.195 -999 356 13.8 102200 100
2005-10-06 14:39 51°14.419 2°54.425 -999 348 13.7 102200 100
2005-10-06 14:40 51°14.452 2°54.653 -999 334 13.6 102200 100
2005-10-06 14:41 51°14.429 2°54.86 -999 323 13.6 102210 100
2005-10-06 14:42 51°14.376 2°55.048 -999 329 13.6 102210 100
2005-10-06 14:43 51°14.297 2°55.221 -999 325 13.6 102210 100
2005-10-06 14:44 51°14.201 2°55.361 -999 322 13.6 102210 100
2005-10-06 14:45 51°14.082 2°55.452 -999 326 13.6 102210 100
2005-10-06 14:46 51°13.948 2°55.547 -999 322 13.6 102210 100
2005-10-06 14:47 51°13.808 2°55.652 -999 320 13.5 102210 100
2005-10-06 14:48 51°13.715 2°55.785 -999 335 13.5 102210 100
2005-10-06 14:49 51°13.663 2°55.896 -999 342 13.5 102210 100
2005-10-06 14:50 51°13.629 2°55.993 -999 327 13.5 102210 100
2005-10-06 14:51 51°13.615 2°56.058 -999 277 13.6 102210 100
2005-10-06 14:52 51°13.605 2°56.093 -999 273 13.6 102210 100